Time,TemperatureF,DewpointF,PressureIn,WindDirection,WindDirectionDegrees,WindSpeedMPH,WindSpeedGustMPH,Humidity,HourlyPrecipIn,Conditions,Clouds,dailyrainin,SoftwareType,DateUTC
2013-01-05 00:00:00,29.6,20.0,30.03,North,32767,-999.0,0.0,67,0.00,,,0.00,Wunderground v.1.15,2013-01-05 05:00:00,
2013-01-05 00:10:00,29.5,19.9,30.03,North,32767,-999.0,0.0,67,0.00,,,0.00,Wunderground v.1.15,2013-01-05 05:10:00,
2013-01-05 00:19:00,29.4,20.1,30.04,North,32767,-999.0,0.0,68,0.00,,,0.00,Wunderground v.1.15,2013-01-05 05:19:00,
2013-01-05 00:24:00,29.2,19.9,30.04,North,32767,-999.0,0.0,68,0.00,,,0.00,Wunderground v.1.15,2013-01-05 05:24:00,
2013-01-05 00:34:00,29.3,20.4,30.04,North,32767,-999.0,0.0,69,0.00,,,0.00,Wunderground v.1.15,2013-01-05 05:34:00,
2013-01-05 00:40:00,29.2,20.3,30.04,North,32767,-999.0,0.0,69,0.00,,,0.00,Wunderground v.1.15,2013-01-05 05:40:00,
2013-01-05 00:50:00,29.2,19.9,30.04,North,32767,-999.0,0.0,68,0.00,,,0.00,Wunderground v.1.15,2013-01-05 05:50:00,
2013-01-05 00:55:00,29.0,20.1,30.04,North,32767,-999.0,0.0,69,0.00,,,0.00,Wunderground v.1.15,2013-01-05 05:55:00,
2013-01-05 01:00:00,28.9,20.0,30.04,North,32767,-999.0,0.0,69,0.00,,,0.00,Wunderground v.1.15,2013-01-05 06:00:00,
2013-01-05 01:10:00,29.2,19.9,30.05,North,32767,-999.0,0.0,68,0.00,,,0.00,Wunderground v.1.15,2013-01-05 06:10:00,
2013-01-05 01:19:00,28.9,20.0,30.05,North,32767,-999.0,0.0,69,0.00,,,0.00,Wunderground v.1.15,2013-01-05 06:19:00,
2013-01-05 01:24:00,28.6,20.1,30.05,North,32767,-999.0,0.0,70,0.00,,,0.00,Wunderground v.1.15,2013-01-05 06:24:00,
2013-01-05 01:30:00,28.3,20.1,30.05,North,32767,-999.0,0.0,71,0.00,,,0.00,Wunderground v.1.15,2013-01-05 06:30:00,
2013-01-05 01:40:00,28.5,20.0,30.06,North,32767,-999.0,0.0,70,0.00,,,0.00,Wunderground v.1.15,2013-01-05 06:40:00,
2013-01-05 01:49:00,28.4,19.9,30.06,North,32767,-999.0,0.0,70,0.00,,,0.00,Wunderground v.1.15,2013-01-05 06:49:00,
2013-01-05 02:00:00,28.3,19.8,30.07,North,32767,-999.0,0.0,70,0.00,,,0.00,Wunderground v.1.15,2013-01-05 07:00:00,
2013-01-05 02:09:00,28.1,19.9,30.08,North,32767,-999.0,0.0,71,0.00,,,0.00,Wunderground v.1.15,2013-01-05 07:09:00,
2013-01-05 02:15:00,28.3,19.8,30.08,North,32767,-999.0,0.0,70,0.00,,,0.00,Wunderground v.1.15,2013-01-05 07:15:00,
2013-01-05 02:20:00,28.1,19.6,30.08,North,32767,-999.0,0.0,70,0.00,,,0.00,Wunderground v.1.15,2013-01-05 07:20:00,
2013-01-05 02:25:00,28.1,19.6,30.08,North,32767,-999.0,0.0,70,0.00,,,0.00,Wunderground v.1.15,2013-01-05 07:25:00,
2013-01-05 02:35:00,27.9,19.7,30.09,North,32767,-999.0,0.0,71,0.00,,,0.00,Wunderground v.1.15,2013-01-05 07:35:00,
2013-01-05 02:40:00,27.9,19.7,30.09,North,32767,-999.0,0.0,71,0.00,,,0.00,Wunderground v.1.15,2013-01-05 07:40:00,
2013-01-05 02:45:00,27.9,19.7,30.10,North,32767,-999.0,0.0,71,0.00,,,0.00,Wunderground v.1.15,2013-01-05 07:45:00,
2013-01-05 02:55:00,27.8,19.6,30.09,North,32767,-999.0,0.0,71,0.00,,,0.00,Wunderground v.1.15,2013-01-05 07:55:00,
2013-01-05 03:00:00,27.9,19.7,30.09,North,32767,-999.0,0.0,71,0.00,,,0.00,Wunderground v.1.15,2013-01-05 08:00:00,
2013-01-05 03:09:00,27.6,19.4,30.10,North,32767,-999.0,0.0,71,0.00,,,0.00,Wunderground v.1.15,2013-01-05 08:09:00,
2013-01-05 03:14:00,27.7,19.5,30.10,North,32767,-999.0,0.0,71,0.00,,,0.00,Wunderground v.1.15,2013-01-05 08:14:00,
2013-01-05 03:25:00,27.6,19.4,30.10,North,32767,-999.0,0.0,71,0.00,,,0.00,Wunderground v.1.15,2013-01-05 08:25:00,
2013-01-05 03:35:00,27.5,19.3,30.10,North,32767,-999.0,0.0,71,0.00,,,0.00,Wunderground v.1.15,2013-01-05 08:35:00,
2013-01-05 03:45:00,27.5,19.3,30.11,North,32767,-999.0,0.0,71,0.00,,,0.00,Wunderground v.1.15,2013-01-05 08:45:00,
2013-01-05 03:54:00,27.4,19.6,30.11,North,32767,-999.0,0.0,72,0.00,,,0.00,Wunderground v.1.15,2013-01-05 08:54:00,
2013-01-05 04:00:00,27.4,19.6,30.11,North,32767,-999.0,0.0,72,0.00,,,0.00,Wunderground v.1.15,2013-01-05 09:00:00,
2013-01-05 04:09:00,27.5,19.7,30.11,North,32767,-999.0,0.0,72,0.00,,,0.00,Wunderground v.1.15,2013-01-05 09:09:00,
2013-01-05 04:14:00,27.5,19.3,30.11,North,32767,-999.0,0.0,71,0.00,,,0.00,Wunderground v.1.15,2013-01-05 09:14:00,
2013-01-05 04:25:00,27.4,19.6,30.12,North,32767,-999.0,0.0,72,0.00,,,0.00,Wunderground v.1.15,2013-01-05 09:25:00,
2013-01-05 04:30:00,27.4,19.9,30.13,North,32767,-999.0,0.0,73,0.00,,,0.00,Wunderground v.1.15,2013-01-05 09:30:00,
2013-01-05 04:35:00,27.4,19.9,30.13,North,32767,-999.0,0.0,73,0.00,,,0.00,Wunderground v.1.15,2013-01-05 09:35:00,
2013-01-05 04:40:00,27.6,19.8,30.13,North,32767,-999.0,0.0,72,0.00,,,0.00,Wunderground v.1.15,2013-01-05 09:40:00,
2013-01-05 04:45:00,27.7,19.8,30.14,North,32767,-999.0,0.0,72,0.00,,,0.00,Wunderground v.1.15,2013-01-05 09:45:00,
2013-01-05 04:54:00,27.8,20.3,30.13,North,32767,-999.0,0.0,73,0.00,,,0.00,Wunderground v.1.15,2013-01-05 09:54:00,
2013-01-05 05:00:00,27.6,20.1,30.13,North,32767,-999.0,0.0,73,0.00,,,0.00,Wunderground v.1.15,2013-01-05 10:00:00,
2013-01-05 05:09:00,27.6,20.1,30.14,North,32767,-999.0,0.0,73,0.00,,,0.00,Wunderground v.1.15,2013-01-05 10:09:00,
2013-01-05 05:14:00,27.6,20.1,30.14,North,32767,-999.0,0.0,73,0.00,,,0.00,Wunderground v.1.15,2013-01-05 10:14:00,
2013-01-05 05:25:00,27.6,20.1,30.14,North,32767,-999.0,0.0,73,0.00,,,0.00,Wunderground v.1.15,2013-01-05 10:25:00,
2013-01-05 05:35:00,27.7,20.5,30.15,North,32767,-999.0,0.0,74,0.00,,,0.00,Wunderground v.1.15,2013-01-05 10:35:00,
2013-01-05 05:40:00,27.7,20.5,30.15,North,32767,-999.0,0.0,74,0.00,,,0.00,Wunderground v.1.15,2013-01-05 10:40:00,
2013-01-05 05:50:00,27.8,20.3,30.16,North,32767,-999.0,0.0,73,0.00,,,0.00,Wunderground v.1.15,2013-01-05 10:50:00,
2013-01-05 06:00:00,28.0,20.8,30.17,North,32767,-999.0,0.0,74,0.00,,,0.00,Wunderground v.1.15,2013-01-05 11:00:00,
2013-01-05 06:09:00,28.0,20.8,30.17,North,32767,-999.0,0.0,74,0.00,,,0.00,Wunderground v.1.15,2013-01-05 11:09:00,
2013-01-05 06:20:00,28.0,21.1,30.18,North,32767,-999.0,0.0,75,0.00,,,0.00,Wunderground v.1.15,2013-01-05 11:20:00,
2013-01-05 06:30:00,28.1,20.9,30.18,North,32767,-999.0,0.0,74,0.00,,,0.00,Wunderground v.1.15,2013-01-05 11:30:00,
2013-01-05 06:35:00,28.1,21.2,30.19,North,32767,-999.0,0.0,75,0.00,,,0.00,Wunderground v.1.15,2013-01-05 11:35:00,
2013-01-05 06:40:00,28.3,21.4,30.19,North,32767,-999.0,0.0,75,0.00,,,0.00,Wunderground v.1.15,2013-01-05 11:40:00,
2013-01-05 06:50:00,28.0,20.8,30.19,North,32767,-999.0,0.0,74,0.00,,,0.00,Wunderground v.1.15,2013-01-05 11:50:00,
2013-01-05 07:00:00,28.0,21.4,30.20,North,32767,-999.0,0.0,76,0.00,,,0.00,Wunderground v.1.15,2013-01-05 12:00:00,
2013-01-05 07:10:00,28.5,21.6,30.20,North,32767,-999.0,0.0,75,0.00,,,0.00,Wunderground v.1.15,2013-01-05 12:10:00,
2013-01-05 07:19:00,28.6,21.7,30.20,North,32767,-999.0,0.0,75,0.00,,,0.00,Wunderground v.1.15,2013-01-05 12:19:00,
2013-01-05 07:25:00,28.7,21.8,30.20,North,32767,-999.0,0.0,75,0.00,,,0.00,Wunderground v.1.15,2013-01-05 12:25:00,
2013-01-05 07:35:00,28.9,22.0,30.21,North,32767,-999.0,0.0,75,0.00,,,0.00,Wunderground v.1.15,2013-01-05 12:35:00,
2013-01-05 07:40:00,28.9,22.0,30.22,North,32767,-999.0,0.0,75,0.00,,,0.00,Wunderground v.1.15,2013-01-05 12:40:00,
2013-01-05 07:49:00,28.8,22.2,30.22,North,32767,-999.0,0.0,76,0.00,,,0.00,Wunderground v.1.15,2013-01-05 12:49:00,
2013-01-05 07:55:00,29.0,22.1,30.22,North,32767,-999.0,0.0,75,0.00,,,0.00,Wunderground v.1.15,2013-01-05 12:55:00,
2013-01-05 08:00:00,29.1,22.2,30.23,North,32767,-999.0,0.0,75,0.00,,,0.00,Wunderground v.1.15,2013-01-05 13:00:00,
2013-01-05 08:10:00,29.3,22.4,30.23,North,32767,-999.0,0.0,75,0.00,,,0.00,Wunderground v.1.15,2013-01-05 13:10:00,
2013-01-05 08:20:00,29.4,22.8,30.24,NNE,29,0.0,0.0,76,0.00,,,0.00,Wunderground v.1.15,2013-01-05 13:20:00,
2013-01-05 08:29:00,29.7,22.4,30.24,NE,40,0.0,0.0,74,0.00,,,0.00,Wunderground v.1.15,2013-01-05 13:29:00,
2013-01-05 08:34:00,29.7,22.7,30.24,NNE,22,0.0,0.0,75,0.00,,,0.00,Wunderground v.1.15,2013-01-05 13:34:00,
2013-01-05 08:44:00,29.9,22.6,30.25,North,10,0.0,0.0,74,0.00,,,0.00,Wunderground v.1.15,2013-01-05 13:44:00,
2013-01-05 08:49:00,30.0,22.7,30.25,North,350,0.0,0.0,74,0.00,,,0.00,Wunderground v.1.15,2013-01-05 13:49:00,
2013-01-05 08:55:00,30.1,23.1,30.25,North,360,0.0,0.0,75,0.00,,,0.00,Wunderground v.1.15,2013-01-05 13:55:00,
2013-01-05 09:00:00,30.2,22.9,30.26,NNE,29,0.0,0.0,74,0.00,,,0.00,Wunderground v.1.15,2013-01-05 14:00:00,
2013-01-05 09:10:00,30.3,22.7,30.26,NE,35,0.0,0.0,73,0.00,,,0.00,Wunderground v.1.15,2013-01-05 14:10:00,
2013-01-05 09:20:00,30.1,22.8,30.26,North,5,0.0,0.0,74,0.00,,,0.00,Wunderground v.1.15,2013-01-05 14:20:00,
2013-01-05 09:24:00,30.1,22.8,30.26,NE,52,0.0,0.0,74,0.00,,,0.00,Wunderground v.1.15,2013-01-05 14:24:00,
2013-01-05 09:34:00,30.3,23.0,30.27,ENE,75,0.0,0.0,74,0.00,,,0.00,Wunderground v.1.15,2013-01-05 14:34:00,
2013-01-05 09:40:00,30.5,23.2,30.27,North,355,0.0,0.0,74,0.00,,,0.00,Wunderground v.1.15,2013-01-05 14:40:00,
2013-01-05 09:50:00,31.2,23.2,30.28,ENE,63,0.0,0.0,72,0.00,,,0.00,Wunderground v.1.15,2013-01-05 14:50:00,
2013-01-05 09:55:00,31.4,23.4,30.28,NE,38,0.0,0.0,72,0.00,,,0.00,Wunderground v.1.15,2013-01-05 14:55:00,
2013-01-05 10:00:00,31.5,23.2,30.29,North,5,0.0,0.0,71,0.00,,,0.00,Wunderground v.1.15,2013-01-05 15:00:00,
2013-01-05 10:09:00,31.8,23.5,30.29,NE,53,0.0,0.0,71,0.00,,,0.00,Wunderground v.1.15,2013-01-05 15:09:00,
2013-01-05 10:14:00,32.0,23.3,30.28,ENE,63,0.0,0.0,70,0.00,,,0.00,Wunderground v.1.15,2013-01-05 15:14:00,
2013-01-05 10:24:00,32.4,23.4,30.29,NE,40,0.0,0.0,69,0.00,,,0.00,Wunderground v.1.15,2013-01-05 15:24:00,
2013-01-05 10:35:00,32.9,23.5,30.28,NE,38,0.0,0.0,68,0.00,,,0.00,Wunderground v.1.15,2013-01-05 15:35:00,
2013-01-05 10:45:00,33.3,23.9,30.30,ENE,62,0.0,0.0,68,0.00,,,0.00,Wunderground v.1.15,2013-01-05 15:45:00,
2013-01-05 10:54:00,33.8,23.6,30.30,NE,52,0.0,0.0,66,0.00,,,0.00,Wunderground v.1.15,2013-01-05 15:54:00,
2013-01-05 11:00:00,34.0,23.8,30.29,NE,38,0.0,0.0,66,0.00,,,0.00,Wunderground v.1.15,2013-01-05 16:00:00,
2013-01-05 11:05:00,34.1,23.6,30.28,ENE,57,0.0,0.0,65,0.00,,,0.00,Wunderground v.1.15,2013-01-05 16:05:00,
2013-01-05 11:15:00,34.4,23.5,30.27,NNE,27,0.0,0.0,64,0.00,,,0.00,Wunderground v.1.15,2013-01-05 16:15:00,
2013-01-05 11:25:00,34.6,23.3,30.27,NE,53,0.0,0.0,63,0.00,,,0.00,Wunderground v.1.15,2013-01-05 16:25:00,
2013-01-05 11:34:00,34.8,23.5,30.27,NNE,24,0.0,0.0,63,0.00,,,0.00,Wunderground v.1.15,2013-01-05 16:34:00,
2013-01-05 11:39:00,34.9,23.6,30.27,NNE,24,0.0,0.0,63,0.00,,,0.00,Wunderground v.1.15,2013-01-05 16:39:00,
2013-01-05 11:49:00,35.0,23.3,30.27,NNE,23,0.0,0.0,62,0.00,,,0.00,Wunderground v.1.15,2013-01-05 16:49:00,
2013-01-05 12:00:00,35.1,23.8,30.26,NNE,30,0.0,0.0,63,0.00,,,0.00,Wunderground v.1.15,2013-01-05 17:00:00,
2013-01-05 12:10:00,35.2,23.1,30.25,ENE,58,0.0,0.0,61,0.00,,,0.00,Wunderground v.1.15,2013-01-05 17:10:00,
2013-01-05 12:20:00,35.4,23.3,30.24,NE,53,0.0,0.0,61,0.00,,,0.00,Wunderground v.1.15,2013-01-05 17:20:00,
2013-01-05 12:25:00,35.5,23.8,30.24,North,9,0.0,0.0,62,0.00,,,0.00,Wunderground v.1.15,2013-01-05 17:25:00,
2013-01-05 12:30:00,35.7,23.9,30.25,ENE,74,0.0,0.0,62,0.00,,,0.00,Wunderground v.1.15,2013-01-05 17:30:00,
2013-01-05 12:35:00,35.9,24.5,30.24,ENE,61,0.0,0.0,63,0.00,,,0.00,Wunderground v.1.15,2013-01-05 17:35:00,
2013-01-05 12:44:00,36.6,24.0,30.25,NNE,24,0.0,0.0,60,0.00,,,0.00,Wunderground v.1.15,2013-01-05 17:44:00,
2013-01-05 12:54:00,36.7,24.1,30.25,NNE,31,0.0,0.0,60,0.00,,,0.00,Wunderground v.1.15,2013-01-05 17:54:00,
2013-01-05 13:00:00,36.6,23.6,30.25,NE,36,0.0,0.0,59,0.00,,,0.00,Wunderground v.1.15,2013-01-05 18:00:00,
2013-01-05 13:10:00,36.6,23.6,30.25,NE,48,0.0,0.0,59,0.00,,,0.00,Wunderground v.1.15,2013-01-05 18:10:00,
2013-01-05 13:20:00,36.7,24.1,30.25,NE,55,0.0,0.0,60,0.00,,,0.01,Wunderground v.1.15,2013-01-05 18:20:00,
2013-01-05 13:25:00,36.7,23.3,30.24,NE,38,0.0,0.0,58,0.00,,,0.01,Wunderground v.1.15,2013-01-05 18:25:00,
2013-01-05 13:34:00,37.0,23.6,30.24,NE,53,0.0,0.0,58,0.00,,,0.01,Wunderground v.1.15,2013-01-05 18:34:00,
2013-01-05 13:45:00,36.9,23.9,30.23,ENE,76,0.0,0.0,59,0.00,,,0.01,Wunderground v.1.15,2013-01-05 18:45:00,
2013-01-05 13:50:00,37.0,24.4,30.23,NNE,28,0.0,0.0,60,0.00,,,0.01,Wunderground v.1.15,2013-01-05 18:50:00,
2013-01-05 14:00:00,37.1,24.5,30.23,NE,48,0.0,0.0,60,0.00,,,0.01,Wunderground v.1.15,2013-01-05 19:00:00,
2013-01-05 14:10:00,36.9,23.9,30.24,NNE,19,0.0,0.0,59,0.00,,,0.01,Wunderground v.1.15,2013-01-05 19:10:00,
2013-01-05 14:19:00,37.4,23.5,30.25,NNE,26,0.0,0.0,57,0.00,,,0.01,Wunderground v.1.15,2013-01-05 19:19:00,
2013-01-05 14:24:00,37.6,23.7,30.25,ENE,63,0.0,0.0,57,0.00,,,0.01,Wunderground v.1.15,2013-01-05 19:24:00,
2013-01-05 14:34:00,37.3,24.3,30.25,NNE,23,0.0,0.0,59,0.00,,,0.01,Wunderground v.1.15,2013-01-05 19:34:00,
2013-01-05 14:40:00,37.6,24.1,30.25,North,5,0.0,0.0,58,0.00,,,0.01,Wunderground v.1.15,2013-01-05 19:40:00,
2013-01-05 14:45:00,37.8,23.9,30.25,NNE,13,0.0,0.0,57,0.00,,,0.01,Wunderground v.1.15,2013-01-05 19:45:00,
2013-01-05 14:55:00,37.1,23.7,30.25,ENE,59,0.0,0.0,58,0.00,,,0.01,Wunderground v.1.15,2013-01-05 19:55:00,
2013-01-05 15:00:00,37.2,24.2,30.25,North,360,0.0,0.0,59,0.00,,,0.01,Wunderground v.1.15,2013-01-05 20:00:00,
2013-01-05 15:10:00,37.7,23.8,30.25,NNW,348,0.0,0.0,57,0.00,,,0.01,Wunderground v.1.15,2013-01-05 20:10:00,
2013-01-05 15:19:00,37.3,23.4,30.25,ENE,57,0.0,0.0,57,0.00,,,0.01,Wunderground v.1.15,2013-01-05 20:19:00,
2013-01-05 15:24:00,37.3,23.4,30.24,ENE,57,0.0,0.0,57,0.00,,,0.01,Wunderground v.1.15,2013-01-05 20:24:00,
2013-01-05 15:29:00,36.9,23.9,30.25,NNE,32,0.0,0.0,59,0.00,,,0.01,Wunderground v.1.15,2013-01-05 20:29:00,
2013-01-05 15:40:00,36.8,23.4,30.25,NNE,21,0.0,0.0,58,0.00,,,0.01,Wunderground v.1.15,2013-01-05 20:40:00,
2013-01-05 15:50:00,36.9,23.9,30.25,NNE,28,0.0,0.0,59,0.00,,,0.01,Wunderground v.1.15,2013-01-05 20:50:00,
2013-01-05 15:55:00,36.8,23.8,30.25,North,355,0.0,0.0,59,0.00,,,0.01,Wunderground v.1.15,2013-01-05 20:55:00,
2013-01-05 16:00:00,36.6,23.6,30.25,NE,40,0.0,0.0,59,0.00,,,0.01,Wunderground v.1.15,2013-01-05 21:00:00,
2013-01-05 16:10:00,36.0,23.0,30.24,NE,40,0.0,0.0,59,0.00,,,0.01,Wunderground v.1.15,2013-01-05 21:10:00,
2013-01-05 16:19:00,35.4,22.9,30.25,North,32767,-999.0,0.0,60,0.00,,,0.01,Wunderground v.1.15,2013-01-05 21:19:00,
2013-01-05 16:24:00,35.3,23.2,30.25,North,32767,-999.0,0.0,61,0.00,,,0.01,Wunderground v.1.15,2013-01-05 21:24:00,
2013-01-05 16:35:00,35.0,23.3,30.24,North,32767,-999.0,0.0,62,0.00,,,0.01,Wunderground v.1.15,2013-01-05 21:35:00,
2013-01-05 16:45:00,34.6,23.3,30.25,North,32767,-999.0,0.0,63,0.00,,,0.01,Wunderground v.1.15,2013-01-05 21:45:00,
2013-01-05 16:55:00,34.2,23.7,30.25,North,32767,-999.0,0.0,65,0.00,,,0.01,Wunderground v.1.15,2013-01-05 21:55:00,
2013-01-05 17:00:00,33.9,23.4,30.26,North,32767,-999.0,0.0,65,0.00,,,0.01,Wunderground v.1.15,2013-01-05 22:00:00,
2013-01-05 17:09:00,33.5,23.7,30.26,North,32767,-999.0,0.0,67,0.00,,,0.01,Wunderground v.1.15,2013-01-05 22:09:00,
2013-01-05 17:20:00,33.1,23.7,30.26,North,32767,-999.0,0.0,68,0.00,,,0.01,Wunderground v.1.15,2013-01-05 22:20:00,
2013-01-05 17:30:00,32.8,23.7,30.26,North,32767,-999.0,0.0,69,0.00,,,0.01,Wunderground v.1.15,2013-01-05 22:30:00,
2013-01-05 17:35:00,32.7,23.6,30.26,North,32767,-999.0,0.0,69,0.00,,,0.01,Wunderground v.1.15,2013-01-05 22:35:00,
2013-01-05 17:40:00,32.5,23.8,30.26,North,32767,-999.0,0.0,70,0.00,,,0.01,Wunderground v.1.15,2013-01-05 22:40:00,
2013-01-05 17:45:00,32.3,23.6,30.26,North,32767,-999.0,0.0,70,0.00,,,0.01,Wunderground v.1.15,2013-01-05 22:45:00,
2013-01-05 17:54:00,32.1,23.8,30.26,North,32767,-999.0,0.0,71,0.00,,,0.01,Wunderground v.1.15,2013-01-05 22:54:00,
2013-01-05 18:00:00,32.0,23.7,30.26,North,32767,-999.0,0.0,71,0.00,,,0.01,Wunderground v.1.15,2013-01-05 23:00:00,
2013-01-05 18:09:00,31.4,23.4,30.26,North,32767,-999.0,0.0,72,0.00,,,0.01,Wunderground v.1.15,2013-01-05 23:09:00,
2013-01-05 18:20:00,31.6,23.6,30.26,North,32767,-999.0,0.0,72,0.00,,,0.01,Wunderground v.1.15,2013-01-05 23:20:00,
2013-01-05 18:30:00,31.7,23.4,30.27,North,32767,-999.0,0.0,71,0.00,,,0.01,Wunderground v.1.15,2013-01-05 23:30:00,
2013-01-05 18:35:00,31.6,23.6,30.27,North,32767,-999.0,0.0,72,0.00,,,0.01,Wunderground v.1.15,2013-01-05 23:35:00,
2013-01-05 18:45:00,31.5,23.5,30.27,North,32767,-999.0,0.0,72,0.00,,,0.01,Wunderground v.1.15,2013-01-05 23:45:00,
2013-01-05 18:54:00,31.5,23.5,30.26,North,32767,-999.0,0.0,72,0.00,,,0.01,Wunderground v.1.15,2013-01-05 23:54:00,
2013-01-05 19:00:00,31.4,23.4,30.26,North,32767,-999.0,0.0,72,0.00,,,0.01,Wunderground v.1.15,2013-01-06 00:00:00,
2013-01-05 19:09:00,31.2,23.5,30.27,North,32767,-999.0,0.0,73,0.00,,,0.01,Wunderground v.1.15,2013-01-06 00:09:00,
2013-01-05 19:15:00,31.2,23.5,30.26,North,32767,-999.0,0.0,73,0.00,,,0.01,Wunderground v.1.15,2013-01-06 00:15:00,
2013-01-05 19:25:00,31.1,23.1,30.26,North,32767,-999.0,0.0,72,0.00,,,0.01,Wunderground v.1.15,2013-01-06 00:25:00,
2013-01-05 19:35:00,30.8,23.2,30.25,North,32767,-999.0,0.0,73,0.00,,,0.01,Wunderground v.1.15,2013-01-06 00:35:00,
2013-01-05 19:39:00,30.6,23.0,30.25,North,32767,-999.0,0.0,73,0.00,,,0.01,Wunderground v.1.15,2013-01-06 00:39:00,
2013-01-05 19:44:00,30.5,23.2,30.24,North,32767,-999.0,0.0,74,0.00,,,0.01,Wunderground v.1.15,2013-01-06 00:44:00,
2013-01-05 19:49:00,30.3,23.0,30.24,North,32767,-999.0,0.0,74,0.00,,,0.01,Wunderground v.1.15,2013-01-06 00:49:00,
2013-01-05 19:55:00,30.3,23.3,30.25,North,32767,-999.0,0.0,75,0.00,,,0.01,Wunderground v.1.15,2013-01-06 00:55:00,
2013-01-05 20:00:00,30.2,23.2,30.26,North,32767,-999.0,0.0,75,0.00,,,0.01,Wunderground v.1.15,2013-01-06 01:00:00,
2013-01-05 20:10:00,29.9,23.3,30.25,North,32767,-999.0,0.0,76,0.00,,,0.01,Wunderground v.1.15,2013-01-06 01:10:00,
2013-01-05 20:15:00,29.8,23.2,30.25,North,32767,-999.0,0.0,76,0.00,,,0.01,Wunderground v.1.15,2013-01-06 01:15:00,
2013-01-05 20:20:00,29.7,23.1,30.25,North,32767,-999.0,0.0,76,0.00,,,0.01,Wunderground v.1.15,2013-01-06 01:20:00,
2013-01-05 20:30:00,29.5,22.9,30.25,North,32767,-999.0,0.0,76,0.00,,,0.01,Wunderground v.1.15,2013-01-06 01:30:00,
2013-01-05 20:34:00,29.5,22.9,30.24,North,32767,-999.0,0.0,76,0.00,,,0.01,Wunderground v.1.15,2013-01-06 01:34:00,
2013-01-05 20:39:00,29.6,23.0,30.24,North,32767,-999.0,0.0,76,0.00,,,0.01,Wunderground v.1.15,2013-01-06 01:39:00,
2013-01-05 20:49:00,29.6,23.0,30.24,North,32767,-999.0,0.0,76,0.00,,,0.01,Wunderground v.1.15,2013-01-06 01:49:00,
2013-01-05 20:55:00,29.6,23.3,30.24,North,32767,-999.0,0.0,77,0.00,,,0.01,Wunderground v.1.15,2013-01-06 01:55:00,
2013-01-05 21:00:00,29.5,23.2,30.25,North,32767,-999.0,0.0,77,0.00,,,0.01,Wunderground v.1.15,2013-01-06 02:00:00,
2013-01-05 21:10:00,29.4,23.1,30.25,North,32767,-999.0,0.0,77,0.00,,,0.01,Wunderground v.1.15,2013-01-06 02:10:00,
2013-01-05 21:20:00,29.3,23.0,30.24,North,32767,-999.0,0.0,77,0.00,,,0.01,Wunderground v.1.15,2013-01-06 02:20:00,
2013-01-05 21:30:00,29.3,23.3,30.24,North,32767,-999.0,0.0,78,0.00,,,0.01,Wunderground v.1.15,2013-01-06 02:30:00,
2013-01-05 21:39:00,29.4,23.4,30.23,North,32767,-999.0,0.0,78,0.00,,,0.01,Wunderground v.1.15,2013-01-06 02:39:00,
2013-01-05 21:44:00,29.5,23.2,30.23,North,32767,-999.0,0.0,77,0.00,,,0.01,Wunderground v.1.15,2013-01-06 02:44:00,
2013-01-05 21:54:00,29.6,23.3,30.22,North,32767,-999.0,0.0,77,0.00,,,0.01,Wunderground v.1.15,2013-01-06 02:54:00,
2013-01-05 22:00:00,29.5,23.2,30.21,North,32767,-999.0,0.0,77,0.00,,,0.01,Wunderground v.1.15,2013-01-06 03:00:00,
2013-01-05 22:10:00,29.5,23.2,30.20,North,32767,-999.0,0.0,77,0.00,,,0.01,Wunderground v.1.15,2013-01-06 03:10:00,
2013-01-05 22:20:00,29.5,23.2,30.21,North,32767,-999.0,0.0,77,0.00,,,0.01,Wunderground v.1.15,2013-01-06 03:20:00,
2013-01-05 22:30:00,29.8,23.5,30.22,North,32767,-999.0,0.0,77,0.00,,,0.01,Wunderground v.1.15,2013-01-06 03:30:00,
2013-01-05 22:35:00,29.9,23.6,30.22,North,32767,-999.0,0.0,77,0.00,,,0.01,Wunderground v.1.15,2013-01-06 03:35:00,
2013-01-05 22:40:00,30.0,23.7,30.22,North,32767,-999.0,0.0,77,0.00,,,0.01,Wunderground v.1.15,2013-01-06 03:40:00,
2013-01-05 22:45:00,30.0,23.4,30.22,North,32767,-999.0,0.0,76,0.00,,,0.01,Wunderground v.1.15,2013-01-06 03:45:00,
2013-01-05 22:49:00,29.9,23.6,30.22,North,32767,-999.0,0.0,77,0.00,,,0.01,Wunderground v.1.15,2013-01-06 03:49:00,
2013-01-05 22:55:00,29.9,23.6,30.22,North,32767,-999.0,0.0,77,0.00,,,0.01,Wunderground v.1.15,2013-01-06 03:55:00,
2013-01-05 23:04:00,29.8,23.5,30.22,North,32767,-999.0,0.0,77,0.00,,,0.01,Wunderground v.1.15,2013-01-06 04:04:00,
2013-01-05 23:10:00,29.8,23.5,30.20,North,32767,-999.0,0.0,77,0.00,,,0.01,Wunderground v.1.15,2013-01-06 04:10:00,
2013-01-05 23:20:00,29.7,23.4,30.20,North,32767,-999.0,0.0,77,0.00,,,0.01,Wunderground v.1.15,2013-01-06 04:20:00,
2013-01-05 23:25:00,29.7,23.4,30.20,North,32767,-999.0,0.0,77,0.00,,,0.01,Wunderground v.1.15,2013-01-06 04:25:00,
2013-01-05 23:34:00,29.8,23.5,30.20,North,32767,-999.0,0.0,77,0.00,,,0.01,Wunderground v.1.15,2013-01-06 04:34:00,
2013-01-05 23:39:00,29.9,23.6,30.19,North,32767,-999.0,0.0,77,0.00,,,0.01,Wunderground v.1.15,2013-01-06 04:39:00,
2013-01-05 23:49:00,29.9,23.9,30.20,North,32767,-999.0,0.0,78,0.00,,,0.01,Wunderground v.1.15,2013-01-06 04:49:00,